SCP
0 0 0 0 0 0 0 0 0 0 0 0 0 0 0 0 0 0 0 0 0 0 0 0 0 0 0 0 0 0 0 0 0 0 0 0 0 0 0 0 0 0 0 0 0 0 0
0 0 0 0 0 0 0 0 0 0 0 0 0 0 0 0 0 0 0 0 0 0 0 0 0 0 0 0 0 0 0 0 0 0 0 0 0 0 0 0 0 0 0 0 0 0 0
0 0 0 0 0 0 -0 -0 -0 -0 -0 -0 -0 -0 -0 0 0 0 0 0 0 0 0 0 0 0 0 0 0 0 0 0 0 0 0 0 0 0 0 0 0 0 0 0 0 0 0
-0 -0 -0 -0 -0 -0 -0 -0 -0 -0 -0 -0 -0 -0 -0 -0 -0 0 0 0 0 0 0 0 0 0 0 0 0 0 0 0 0 0 0 0 0 0 0 0 0 0 0 0 0 0 0
-0 -0 -0 -0 -0 -0 -0 -0 -0 -0 -0 -0 -0 -0 -0 -0 -0 -0 0 0 0 0 -0 -0 0 0 0 0 0 0 0 0 0 0 0 0 0 0 0 0 0 0 0 0 0 0 0
0 -0 -0 -0 -0 -0 -0 -0 -0 -0 -0 -0 -0 -0 -0 -0 -0 -0 -0 0 0 0 0 -0 0 0 0 0 -0 -0 0 0 0 0 0 0 0 0 0 0 0 0 0 0 0 0 0
-0 -0 -0 -0 -0 -0 -0 -0 -0 -0 -0 -0 -0 -0 -0 -0 -0 -0 -0 0 0 0 -0 0 0 0 0 0 0 0 -0 -0 0 0 0 0 0 0 0 0 0 0 0 0 0 0 0
-0 -0 -0 -0 -0 -0 -0 -0 -0 -0 -0 -0 -0 -0 -0 -0 -0 -0 0 0 0 -0 0 0 0 -0 0 0 0 0 0 0 0 0 0 0 0 0 0 0 0 0 0 0 0 0 0
-0 -0 -0 -0 -0 -0 -0 -0 -0 -0 -0 -0 -0 -0 -0 0 -0 0 0 0 0 0 -0 0 0 0 0 0 0 0 0 0 0 0 0 0 0 0 0 0 0 0 0 0 0 0 0
-0 -0 -0 -0 -0 -0 -0 -0 -0 -0 -0 -0 0 0 0 0 0 0 0 0 0 0 0 -0 -0 -0 -0 -0 -0 -0 -0 0 0 0 0 0 0 0 0 0 0 0 0 0 0 0 0
-0 -0 -0 -0 -0 -0 -0 -0 -0 -0 -0 0 0 0 -0 0 0 0 0 0 0 0 -0 0 -0 -0 -0 0 0 0 -0 0 -0 0 0 0 0 0 0 0 0 0 0 0 0 0 0
-0 -0 -0 -0 -0 -0 -0 -0 -0 0 0 0 0 0 -0 0 0 0 0 0 0 0 -0 -0 -0 -0 -0 -0 0 0 0 -0 -0 -0 -0 0 0 0 0 0 0 0 0 0 0 0 0
-0 -0 -0 -0 -0 -0 0 -0 -0 0 0 0 0 0 -0 0 0 0 0 0 0 -0 -0 -0 0 -0 -0 -0 -0 0 0 0 0 0 0 0 0 0 0 0 0 0 0 0 0 0 0
0 0 0 0 0 0 0 0 0 0 0 0 0 0 0 0 0 0 0 0 0 0 0 -0 0 -0 -0 -0 0 -0 0 0 0 0 0 0 0 0 0 0 0 0 0 0 0 0 0
0 0 0 0 0 0 0 0 0 0 0 0 0 0 0 0 0 0 0 0 0 0 -0 0 -0 -0 -0 0 -0 0 0 0 0 0 0 0 0 0 0 0 0 0 0 0 0 0 0
0 0 0 0 0 0 0 0 0 0 0 0 0 0 0 0 0 0 0 0 0 -0 -0 0 -0 -0 0 0 0 -0 0 0 0 0 0 0 -0 -0 0 0 0 0 0 0 0 0 0
0 0 0 0 0 0 0 0 0 0 -0 0 0 0 0 0 0 0 0 0 0 0 0 0 -0 -0 -0 0 -0 0 0 0 0 0 0 0 0 -0 0 -0 0 0 0 0 0 0 0
0 0 0 0 0 0 0 0 0 0 -0 0 0 0 0 0 0 0 0 0 0 0 0 0 0 -0 0 0 0 -0 -0 -0 -0 0 0 0 0 -0 0 0 0 0 0 0 0 0 0
0 0 0 0 0 0 0 0 0 0 0 0 0 0 0 0 0 0 0 0 0 0 0 -0 0 0 0 -0 -0 -0 -0 0 -0 -0 0 0 0 0 0 0 0 0 0 0 0 0 0
0 0 0 0 0 0 0 0 0 0 0 0 0 0 0 0 0 0 0 0 0 0 0 -0 0 -0 0 0 0 0 0 0 0 0 0 0 0 0 0 0 0 0 0 0 0 0 0
0 0 0 0 0 0 0 0 0 0 0 0 0 0 0 0 0 0 0 0 0 0 0 0 0 0 -0 0 -0 -0 0 -0 -0 -0 0 0 0 0 0 0 0 0 0 0 0 0 0
0 0 0 0 0 0 0 0 0 0 0 0 0 0 0 0 0 0 0 0 0 0 0 0 0 0 -0 0 -0 -0 -0 -0 -0 -0 -0 0 0 0 0 0 -0 0 0 0 0 0 0
0 0 0 0 0 0 0 0 0 0 0 0 0 0 0 0 0 0 0 0 0 -0 0 0 -0 0 -0 -0 0 -0 -0 -0 0 0 -0 -0 0 0 0 -0 -0 0 0 0 0 0 -0
0 0 0 0 0 0 0 0 0 0 0 0 0 0 0 0 0 0 0 0 0 0 0 0 0 -0 0 0 -0 -0 -0 -0 -0 -0 -0 0 0 0 0 -0 -0 -0 0 0 0 0 -0
0 0 0 0 0 0 0 0 0 0 0 0 0 0 0 0 0 0 -0 0 0 0 0 0 0 0 0 0 0 -0 -0 -0 0 -0 -0 0 0 -0 -0 0 0 0 0 0 0 0 1
0 0 0 0 0 0 0 0 0 0 0 0 0 0 0 0 0 0 0 0 0 0 0 0 -0 -0 0 0 0 -0 0 0 0 -0 -0 -0 0 -0 -0 -0 0 0 0 0 0 0 0
0 0 0 0 0 0 0 0 0 0 0 0 0 0 0 0 0 0 0 0 0 0 0 0 -0 0 0 -0 -0 -0 0 -0 0 -0 0 -0 -0 -0 -0 0 0 0 0 0 0 0 0
0 0 0 0 0 0 0 0 0 0 0 0 0 0 0 0 0 0 0 0 0 0 0 0 0 0 0 0 -0 0 0 0 0 0 0 0 -0 -0 -0 0 0 0 0 0 0 0 0
0 0 0 0 0 0 0 0 0 0 0 0 0 0 0 0 0 0 0 0 0 0 0 0 0 0 0 0 0 0 0 0 0 -0 0 0 0 -0 0 0 0 0 0 0 0 0 0
Wind_Speed_500mb
33 33 33 35 36 36 36 36 36 37 37 38 37 38 39 40 40 39 39 39 40 40 42 44 42 38 39 23 48 21 31 20 16 19 56 49 42 32 19 13 36 49 44 57 62 66 74
34 35 36 37 40 40 39 38 38 38 39 40 41 42 46 48 49 48 45 42 38 37 39 42 45 44 34 37 35 26 28 39 39 25 27 35 31 44 36 30 38 48 49 58 59 68 72
34 36 38 39 38 38 37 35 35 34 34 35 36 36 37 39 41 45 49 51 48 43 40 41 41 40 40 66 46 35 41 35 27 35 37 44 49 52 33 22 63 59 43 40 50 58 45
35 38 39 39 39 40 40 40 40 41 43 45 46 47 49 47 47 47 48 46 44 45 46 34 34 28 27 48 29 34 54 44 37 37 37 37 40 42 30 27 38 33 36 41 45 44 57
33 37 39 39 40 42 43 44 45 46 47 48 49 50 52 53 51 54 56 47 38 26 39 34 32 19 25 18 31 11 20 40 34 42 42 36 39 46 35 11 14 19 35 45 52 44 32
34 37 40 40 42 44 45 46 47 48 49 51 52 53 54 52 46 45 39 41 37 32 23 16 21 18 33 20 16 18 5 9 13 27 36 31 24 22 22 24 35 25 37 44 55 18 23
36 37 39 42 44 45 47 49 49 49 48 50 54 61 64 56 45 30 42 50 57 17 9 36 52 34 75 37 46 12 17 19 20 19 12 31 19 43 66 43 32 31 39 43 33 32 35
39 39 40 42 44 47 50 52 52 52 52 55 58 61 60 50 41 18 29 34 42 45 46 78 70 84 81 79 66 63 43 45 18 14 15 20 46 44 34 29 38 44 49 48 27 20 29
38 39 41 43 45 49 51 52 53 52 51 52 54 57 52 41 29 22 34 41 42 53 29 78 61 75 84 63 65 64 57 52 25 25 24 31 24 32 41 41 43 49 49 35 36 28 44
39 39 40 43 47 50 51 52 52 53 51 50 51 53 41 39 22 28 36 47 45 42 9 28 43 19 8 65 51 69 71 55 33 35 30 31 35 40 37 50 38 47 27 41 41 29 28
42 40 40 43 46 48 50 51 51 54 52 49 48 47 31 26 30 27 45 61 38 19 9 30 27 35 43 5 19 36 39 43 32 33 21 44 25 23 41 34 35 47 22 39 31 30 33
42 43 43 44 47 50 51 53 54 55 53 50 44 35 27 25 27 38 52 37 26 3 6 20 22 18 22 9 27 27 12 32 40 28 25 32 35 35 33 31 35 33 31 37 32 23 24
44 44 44 45 47 50 54 56 58 57 52 50 42 22 21 20 24 33 39 36 5 4 12 17 30 36 29 32 30 20 16 20 10 12 21 22 28 35 35 36 36 30 26 13 18 18 31
47 47 47 48 50 53 58 59 59 57 50 47 37 17 16 18 16 33 32 8 5 20 32 38 34 27 20 22 29 36 34 15 15 33 20 22 19 18 20 38 20 25 26 16 26 17 33
47 48 48 49 53 59 63 63 61 57 48 48 32 8 15 11 20 19 22 4 4 15 37 41 38 15 16 28 6 19 27 23 19 9 4 6 14 22 35 30 28 38 35 36 31 23 17
49 48 49 51 54 60 66 67 64 60 53 43 41 25 11 17 25 21 3 8 20 30 32 30 38 9 27 24 21 4 10 25 25 34 28 6 16 20 33 31 27 35 16 12 21 24 25
50 51 51 52 53 58 66 69 65 63 59 49 22 10 7 9 10 8 1 9 41 8 48 12 29 24 26 13 18 26 11 11 13 18 23 26 8 26 21 7 22 18 32 23 13 19 19
50 52 54 55 55 55 61 68 65 64 63 51 15 7 5 9 7 6 6 29 44 27 45 27 24 11 23 33 16 14 12 15 6 4 2 9 9 13 23 27 34 34 40 31 16 36 10
49 51 53 54 56 57 56 62 63 54 56 57 33 17 18 7 3 4 23 26 37 39 21 22 26 31 27 21 15 5 6 9 21 10 1 6 6 10 11 13 25 17 27 34 13 15 40
49 48 52 55 57 59 58 56 60 48 40 46 15 7 17 32 33 19 22 20 29 30 23 38 26 14 8 21 25 21 11 11 24 11 7 10 8 11 16 16 18 20 40 25 32 20 26
51 51 51 54 56 59 61 54 57 50 33 28 9 11 17 9 21 27 30 29 34 32 32 33 15 22 27 20 31 16 22 15 12 20 10 10 8 19 32 41 22 33 38 39 33 29 35
49 52 53 54 56 59 59 54 53 53 36 16 16 13 15 30 36 30 15 13 31 34 25 22 20 34 35 15 20 31 28 18 17 8 18 11 7 17 33 32 5 37 43 40 41 45 28
51 52 54 56 58 56 58 54 48 51 43 13 21 25 26 17 18 16 14 33 37 35 16 53 16 24 28 31 48 46 51 40 32 28 18 15 7 8 11 15 6 17 39 34 28 38 37
52 52 53 56 56 56 54 52 47 44 41 28 27 31 15 16 16 26 39 41 37 38 30 40 41 13 30 70 60 51 50 49 33 30 30 17 13 6 5 7 5 20 17 37 36 20 29
55 54 53 55 56 53 52 53 51 45 40 39 29 16 12 10 32 36 41 38 51 49 29 39 47 58 70 39 9 14 8 9 5 29 28 13 8 7 6 4 17 20 21 21 11 19 35
60 56 54 54 54 53 51 52 53 50 41 40 38 16 27 19 9 45 49 43 26 19 16 32 52 55 31 4 4 7 7 7 7 9 15 12 16 6 4 8 9 12 42 65 32 17 15
62 58 58 56 52 52 51 50 49 50 41 40 48 9 29 23 48 30 29 30 36 18 9 22 42 21 37 10 4 5 6 15 10 14 8 2 6 7 2 4 10 22 52 64 9 8 2
63 64 61 57 51 49 50 48 49 48 47 50 53 18 29 28 64 58 31 53 69 47 8 23 21 20 9 15 8 8 5 8 9 8 13 5 4 2 4 4 5 53 55 11 6 5 27
67 65 61 54 46 47 49 50 49 47 46 54 52 12 26 32 53 75 47 37 44 44 41 6 6 7 8 5 7 6 5 6 10 8 10 4 6 2 7 6 16 46 40 26 23 22 40
Wind_Direction_500mb
39 35 32 29 24 19 15 10 5 360 354 348 345 345 342 340 337 333 327 323 319 316 312 311 310 303 301 253 236 217 304 324 318 226 217 218 231 238 247 257 251 233 245 248 246 247 250
36 32 27 22 17 12 8 4 2 1 359 354 348 345 344 341 340 336 331 324 316 310 305 304 303 301 292 260 273 234 264 260 260 243 234 221 223 233 260 254 245 264 264 254 252 245 250
35 29 21 17 17 14 10 6 4 3 1 359 356 350 345 342 337 331 326 318 314 308 301 299 293 288 271 259 280 243 233 228 215 223 245 240 241 237 236 240 254 266 274 281 263 259 258
30 24 21 22 20 17 15 14 11 7 2 358 354 351 348 345 341 338 330 321 306 298 297 299 294 276 259 307 300 268 232 247 247 244 256 247 255 278 279 283 286 247 257 259 257 260 262
24 22 21 20 19 16 13 12 9 4 1 357 353 349 344 344 339 337 332 332 332 299 275 295 291 256 264 316 266 301 245 243 249 249 251 253 258 259 277 261 272 241 240 245 254 241 251
18 21 18 15 14 10 7 5 1 358 355 350 347 344 341 341 335 336 344 344 357 321 288 292 284 254 261 253 259 237 175 208 249 235 248 247 256 235 236 224 221 218 228 238 249 247 239
15 14 11 9 7 4 2 0 357 354 349 345 344 343 342 340 336 338 343 355 2 351 351 291 280 244 289 269 294 205 225 228 240 248 214 233 219 224 220 221 242 258 239 248 248 237 252
11 9 6 4 1 359 356 355 352 349 346 349 346 342 339 342 338 347 346 337 347 320 298 283 265 259 254 267 279 281 276 283 257 235 235 235 232 234 237 233 233 242 257 262 281 255 252
3 1 358 357 355 354 352 351 349 343 344 349 345 341 342 0 1 2 340 341 334 338 308 293 273 252 246 252 254 258 254 249 249 255 249 246 252 231 237 229 237 231 239 255 262 283 283
360 359 355 355 354 353 349 349 346 341 343 347 346 342 349 359 7 355 354 339 328 337 296 317 357 28 268 232 259 250 247 228 222 235 238 258 261 253 248 230 234 242 240 239 252 257 257
1 358 359 0 357 354 350 348 345 341 343 346 347 343 355 348 347 357 336 324 326 340 294 346 335 319 1 354 328 324 217 214 232 221 211 242 271 244 256 256 235 250 245 248 265 245 257
356 353 355 357 355 353 351 346 345 343 342 343 346 340 351 359 344 348 326 350 338 64 319 319 313 321 341 314 313 307 214 210 218 227 253 262 255 251 266 269 259 266 252 247 261 262 269
1 358 355 355 355 353 351 347 345 344 342 340 342 336 353 346 342 337 335 343 35 12 273 315 346 344 357 357 338 269 256 243 266 249 260 291 277 242 250 269 276 259 229 247 235 232 241
2 360 358 356 357 354 351 347 346 344 345 339 339 319 346 333 320 339 339 335 336 336 329 335 341 7 353 30 343 333 330 314 253 228 244 259 267 260 281 230 258 254 228 212 214 203 253
5 1 359 357 355 354 352 349 348 346 348 337 336 316 305 347 294 356 3 343 209 296 322 341 331 3 354 357 117 343 334 326 329 60 218 338 264 287 308 298 230 251 249 226 252 283 264
4 1 357 354 353 354 354 352 350 347 348 341 326 322 272 246 309 349 6 276 311 346 343 355 322 345 333 342 349 74 277 13 345 22 13 285 286 269 288 309 301 238 251 225 219 232 253
2 1 357 354 351 351 355 355 351 349 350 348 349 294 183 359 299 17 39 268 320 15 321 279 308 321 315 347 317 303 316 347 345 332 39 325 286 280 290 253 268 285 235 241 240 210 237
359 1 358 358 355 350 351 356 355 349 351 352 15 306 218 323 263 248 306 313 324 326 335 319 346 323 306 315 313 342 335 293 288 302 18 276 295 292 271 273 272 279 282 225 230 222 260
355 357 357 358 358 355 350 354 359 353 348 349 337 280 296 291 303 315 300 326 325 324 312 320 332 344 10 327 329 298 250 298 250 232 344 54 303 303 293 241 244 248 275 224 204 250 228
351 352 353 355 357 356 353 352 359 357 347 345 332 322 1 336 354 323 321 310 314 318 334 339 324 80 315 308 293 316 240 308 210 274 226 116 248 244 278 296 327 303 320 315 234 232 230
349 351 350 350 353 353 353 351 355 360 354 349 336 350 9 315 323 310 320 301 321 329 332 331 305 329 321 319 315 307 315 295 266 226 197 150 253 248 270 284 270 275 285 297 304 266 216
349 350 350 348 349 350 351 351 352 358 5 358 337 338 313 295 305 310 353 320 314 330 324 314 354 319 311 287 309 310 301 279 276 247 172 177 254 280 287 267 230 277 281 280 279 276 245
337 339 342 346 349 347 348 349 349 357 1 359 325 328 317 275 297 322 317 323 319 331 334 323 325 311 302 305 306 266 283 274 258 263 254 191 231 292 267 137 125 282 257 260 259 273 259
333 334 337 339 341 345 347 347 345 345 355 331 328 322 298 294 307 313 323 322 334 329 304 306 315 300 323 319 310 296 279 264 251 249 225 223 198 256 276 197 177 228 263 226 224 310 266
331 329 331 331 336 338 342 344 344 339 332 336 334 296 289 289 301 300 335 326 318 315 320 325 324 329 318 317 323 315 311 348 244 246 213 212 151 252 256 223 321 317 10 332 318 39 15
328 325 326 328 329 333 334 338 339 339 332 323 337 273 283 299 253 316 312 312 314 323 315 313 329 327 333 277 0 314 351 298 327 349 14 192 179 222 230 183 212 33 336 335 314 88 313
325 321 323 322 322 325 329 332 335 338 333 326 325 276 283 265 283 289 307 301 308 307 281 298 338 334 0 340 331 332 329 355 351 340 341 328 132 199 179 341 298 334 329 322 80 148 132
322 320 319 318 317 318 323 327 330 333 327 326 324 322 259 272 285 292 292 296 299 294 306 316 335 16 332 16 333 343 334 4 314 304 331 338 292 161 158 222 265 360 340 44 344 318 60
321 320 318 315 314 315 317 319 326 329 329 324 315 302 281 284 271 296 301 304 282 280 279 298 280 283 334 326 347 322 307 345 310 327 345 351 318 345 13 53 12 336 324 313 342 66 49
Wind_Speed_850mb
33 33 33 35 36 36 36 36 36 37 37 38 37 38 39 40 40 39 39 39 40 40 42 44 42 38 39 23 48 21 31 20 16 19 56 49 42 32 19 13 36 49 44 57 62 66 74
34 35 36 37 40 40 39 38 38 38 39 40 41 42 46 48 49 48 45 42 38 37 39 42 45 44 34 37 35 26 28 39 39 25 27 35 31 44 36 30 38 48 49 58 59 68 72
34 36 38 39 38 38 37 35 35 34 34 35 36 36 37 39 41 45 49 51 48 43 40 41 41 40 40 66 46 35 41 35 27 35 37 44 49 52 33 22 63 59 43 40 50 58 45
35 38 39 39 39 40 40 40 40 41 43 45 46 47 49 47 47 47 48 46 44 45 46 34 34 28 27 48 29 34 54 44 37 37 37 37 40 42 30 27 38 33 36 41 45 44 57
33 37 39 39 40 42 43 44 45 46 47 48 49 50 52 53 51 54 56 47 38 26 39 34 32 19 25 18 31 11 20 40 34 42 42 36 39 46 35 11 14 19 35 45 52 44 32
34 37 40 40 42 44 45 46 47 48 49 51 52 53 54 52 46 45 39 41 37 32 23 16 21 18 33 20 16 18 5 9 13 27 36 31 24 22 22 24 35 25 37 44 55 18 23
36 37 39 42 44 45 47 49 49 49 48 50 54 61 64 56 45 30 42 50 57 17 9 36 52 34 75 37 46 12 17 19 20 19 12 31 19 43 66 43 32 31 39 43 33 32 35
39 39 40 42 44 47 50 52 52 52 52 55 58 61 60 50 41 18 29 34 42 45 46 78 70 84 81 79 66 63 43 45 18 14 15 20 46 44 34 29 38 44 49 48 27 20 29
38 39 41 43 45 49 51 52 53 52 51 52 54 57 52 41 29 22 34 41 42 53 29 78 61 75 84 63 65 64 57 52 25 25 24 31 24 32 41 41 43 49 49 35 36 28 44
39 39 40 43 47 50 51 52 52 53 51 50 51 53 41 39 22 28 36 47 45 42 9 28 43 19 8 65 51 69 71 55 33 35 30 31 35 40 37 50 38 47 27 41 41 29 28
42 40 40 43 46 48 50 51 51 54 52 49 48 47 31 26 30 27 45 61 38 19 9 30 27 35 43 5 19 36 39 43 32 33 21 44 25 23 41 34 35 47 22 39 31 30 33
42 43 43 44 47 50 51 53 54 55 53 50 44 35 27 25 27 38 52 37 26 3 6 20 22 18 22 9 27 27 12 32 40 28 25 32 35 35 33 31 35 33 31 37 32 23 24
44 44 44 45 47 50 54 56 58 57 52 50 42 22 21 20 24 33 39 36 5 4 12 17 30 36 29 32 30 20 16 20 10 12 21 22 28 35 35 36 36 30 26 13 18 18 31
47 47 47 48 50 53 58 59 59 57 50 47 37 17 16 18 16 33 32 8 5 20 32 38 34 27 20 22 29 36 34 15 15 33 20 22 19 18 20 38 20 25 26 16 26 17 33
47 48 48 49 53 59 63 63 61 57 48 48 32 8 15 11 20 19 22 4 4 15 37 41 38 15 16 28 6 19 27 23 19 9 4 6 14 22 35 30 28 38 35 36 31 23 17
49 48 49 51 54 60 66 67 64 60 53 43 41 25 11 17 25 21 3 8 20 30 32 30 38 9 27 24 21 4 10 25 25 34 28 6 16 20 33 31 27 35 16 12 21 24 25
50 51 51 52 53 58 66 69 65 63 59 49 22 10 7 9 10 8 1 9 41 8 48 12 29 24 26 13 18 26 11 11 13 18 23 26 8 26 21 7 22 18 32 23 13 19 19
50 52 54 55 55 55 61 68 65 64 63 51 15 7 5 9 7 6 6 29 44 27 45 27 24 11 23 33 16 14 12 15 6 4 2 9 9 13 23 27 34 34 40 31 16 36 10
49 51 53 54 56 57 56 62 63 54 56 57 33 17 18 7 3 4 23 26 37 39 21 22 26 31 27 21 15 5 6 9 21 10 1 6 6 10 11 13 25 17 27 34 13 15 40
49 48 52 55 57 59 58 56 60 48 40 46 15 7 17 32 33 19 22 20 29 30 23 38 26 14 8 21 25 21 11 11 24 11 7 10 8 11 16 16 18 20 40 25 32 20 26
51 51 51 54 56 59 61 54 57 50 33 28 9 11 17 9 21 27 30 29 34 32 32 33 15 22 27 20 31 16 22 15 12 20 10 10 8 19 32 41 22 33 38 39 33 29 35
49 52 53 54 56 59 59 54 53 53 36 16 16 13 15 30 36 30 15 13 31 34 25 22 20 34 35 15 20 31 28 18 17 8 18 11 7 17 33 32 5 37 43 40 41 45 28
51 52 54 56 58 56 58 54 48 51 43 13 21 25 26 17 18 16 14 33 37 35 16 53 16 24 28 31 48 46 51 40 32 28 18 15 7 8 11 15 6 17 39 34 28 38 37
52 52 53 56 56 56 54 52 47 44 41 28 27 31 15 16 16 26 39 41 37 38 30 40 41 13 30 70 60 51 50 49 33 30 30 17 13 6 5 7 5 20 17 37 36 20 29
55 54 53 55 56 53 52 53 51 45 40 39 29 16 12 10 32 36 41 38 51 49 29 39 47 58 70 39 9 14 8 9 5 29 28 13 8 7 6 4 17 20 21 21 11 19 35
60 56 54 54 54 53 51 52 53 50 41 40 38 16 27 19 9 45 49 43 26 19 16 32 52 55 31 4 4 7 7 7 7 9 15 12 16 6 4 8 9 12 42 65 32 17 15
62 58 58 56 52 52 51 50 49 50 41 40 48 9 29 23 48 30 29 30 36 18 9 22 42 21 37 10 4 5 6 15 10 14 8 2 6 7 2 4 10 22 52 64 9 8 2
63 64 61 57 51 49 50 48 49 48 47 50 53 18 29 28 64 58 31 53 69 47 8 23 21 20 9 15 8 8 5 8 9 8 13 5 4 2 4 4 5 53 55 11 6 5 27
67 65 61 54 46 47 49 50 49 47 46 54 52 12 26 32 53 75 47 37 44 44 41 6 6 7 8 5 7 6 5 6 10 8 10 4 6 2 7 6 16 46 40 26 23 22 40
Wind_Direction_850mb
39 35 32 29 24 19 15 10 5 360 354 348 345 345 342 340 337 333 327 323 319 316 312 311 310 303 301 253 236 217 304 324 318 226 217 218 231 238 247 257 251 233 245 248 246 247 250
36 32 27 22 17 12 8 4 2 1 359 354 348 345 344 341 340 336 331 324 316 310 305 304 303 301 292 260 273 234 264 260 260 243 234 221 223 233 260 254 245 264 264 254 252 245 250
35 29 21 17 17 14 10 6 4 3 1 359 356 350 345 342 337 331 326 318 314 308 301 299 293 288 271 259 280 243 233 228 215 223 245 240 241 237 236 240 254 266 274 281 263 259 258
30 24 21 22 20 17 15 14 11 7 2 358 354 351 348 345 341 338 330 321 306 298 297 299 294 276 259 307 300 268 232 247 247 244 256 247 255 278 279 283 286 247 257 259 257 260 262
24 22 21 20 19 16 13 12 9 4 1 357 353 349 344 344 339 337 332 332 332 299 275 295 291 256 264 316 266 301 245 243 249 249 251 253 258 259 277 261 272 241 240 245 254 241 251
18 21 18 15 14 10 7 5 1 358 355 350 347 344 341 341 335 336 344 344 357 321 288 292 284 254 261 253 259 237 175 208 249 235 248 247 256 235 236 224 221 218 228 238 249 247 239
15 14 11 9 7 4 2 0 357 354 349 345 344 343 342 340 336 338 343 355 2 351 351 291 280 244 289 269 294 205 225 228 240 248 214 233 219 224 220 221 242 258 239 248 248 237 252
11 9 6 4 1 359 356 355 352 349 346 349 346 342 339 342 338 347 346 337 347 320 298 283 265 259 254 267 279 281 276 283 257 235 235 235 232 234 237 233 233 242 257 262 281 255 252
3 1 358 357 355 354 352 351 349 343 344 349 345 341 342 0 1 2 340 341 334 338 308 293 273 252 246 252 254 258 254 249 249 255 249 246 252 231 237 229 237 231 239 255 262 283 283
360 359 355 355 354 353 349 349 346 341 343 347 346 342 349 359 7 355 354 339 328 337 296 317 357 28 268 232 259 250 247 228 222 235 238 258 261 253 248 230 234 242 240 239 252 257 257
1 358 359 0 357 354 350 348 345 341 343 346 347 343 355 348 347 357 336 324 326 340 294 346 335 319 1 354 328 324 217 214 232 221 211 242 271 244 256 256 235 250 245 248 265 245 257
356 353 355 357 355 353 351 346 345 343 342 343 346 340 351 359 344 348 326 350 338 64 319 319 313 321 341 314 313 307 214 210 218 227 253 262 255 251 266 269 259 266 252 247 261 262 269
1 358 355 355 355 353 351 347 345 344 342 340 342 336 353 346 342 337 335 343 35 12 273 315 346 344 357 357 338 269 256 243 266 249 260 291 277 242 250 269 276 259 229 247 235 232 241
2 360 358 356 357 354 351 347 346 344 345 339 339 319 346 333 320 339 339 335 336 336 329 335 341 7 353 30 343 333 330 314 253 228 244 259 267 260 281 230 258 254 228 212 214 203 253
5 1 359 357 355 354 352 349 348 346 348 337 336 316 305 347 294 356 3 343 209 296 322 341 331 3 354 357 117 343 334 326 329 60 218 338 264 287 308 298 230 251 249 226 252 283 264
4 1 357 354 353 354 354 352 350 347 348 341 326 322 272 246 309 349 6 276 311 346 343 355 322 345 333 342 349 74 277 13 345 22 13 285 286 269 288 309 301 238 251 225 219 232 253
2 1 357 354 351 351 355 355 351 349 350 348 349 294 183 359 299 17 39 268 320 15 321 279 308 321 315 347 317 303 316 347 345 332 39 325 286 280 290 253 268 285 235 241 240 210 237
359 1 358 358 355 350 351 356 355 349 351 352 15 306 218 323 263 248 306 313 324 326 335 319 346 323 306 315 313 342 335 293 288 302 18 276 295 292 271 273 272 279 282 225 230 222 260
355 357 357 358 358 355 350 354 359 353 348 349 337 280 296 291 303 315 300 326 325 324 312 320 332 344 10 327 329 298 250 298 250 232 344 54 303 303 293 241 244 248 275 224 204 250 228
351 352 353 355 357 356 353 352 359 357 347 345 332 322 1 336 354 323 321 310 314 318 334 339 324 80 315 308 293 316 240 308 210 274 226 116 248 244 278 296 327 303 320 315 234 232 230
349 351 350 350 353 353 353 351 355 360 354 349 336 350 9 315 323 310 320 301 321 329 332 331 305 329 321 319 315 307 315 295 266 226 197 150 253 248 270 284 270 275 285 297 304 266 216
349 350 350 348 349 350 351 351 352 358 5 358 337 338 313 295 305 310 353 320 314 330 324 314 354 319 311 287 309 310 301 279 276 247 172 177 254 280 287 267 230 277 281 280 279 276 245
337 339 342 346 349 347 348 349 349 357 1 359 325 328 317 275 297 322 317 323 319 331 334 323 325 311 302 305 306 266 283 274 258 263 254 191 231 292 267 137 125 282 257 260 259 273 259
333 334 337 339 341 345 347 347 345 345 355 331 328 322 298 294 307 313 323 322 334 329 304 306 315 300 323 319 310 296 279 264 251 249 225 223 198 256 276 197 177 228 263 226 224 310 266
331 329 331 331 336 338 342 344 344 339 332 336 334 296 289 289 301 300 335 326 318 315 320 325 324 329 318 317 323 315 311 348 244 246 213 212 151 252 256 223 321 317 10 332 318 39 15
328 325 326 328 329 333 334 338 339 339 332 323 337 273 283 299 253 316 312 312 314 323 315 313 329 327 333 277 0 314 351 298 327 349 14 192 179 222 230 183 212 33 336 335 314 88 313
325 321 323 322 322 325 329 332 335 338 333 326 325 276 283 265 283 289 307 301 308 307 281 298 338 334 0 340 331 332 329 355 351 340 341 328 132 199 179 341 298 334 329 322 80 148 132
322 320 319 318 317 318 323 327 330 333 327 326 324 322 259 272 285 292 292 296 299 294 306 316 335 16 332 16 333 343 334 4 314 304 331 338 292 161 158 222 265 360 340 44 344 318 60
321 320 318 315 314 315 317 319 326 329 329 324 315 302 281 284 271 296 301 304 282 280 279 298 280 283 334 326 347 322 307 345 310 327 345 351 318 345 13 53 12 336 324 313 342 66 49